Regional Weather Roundup
Issued by NWS

Home | Current Version | Previous Version | Text Only | Print | Product List | Glossary Off
Versions: 1 2 3 4 5 6 7 8 9 10 11 12 13 14 15 16 17 18 19 20 21 22 23 24 25 26 27 28 29 30 31 32 33 34 35 36 37 38 39 40 41 42 43 44 45 46 47 48 49 50

000
ASUS44 KMEG 242110
RWRTN
TENNESSEE HOURLY STATE WEATHER ROUNDUP
NATIONAL WEATHER SERVICE MEMPHIS TN
400 PM CDT SAT JUN 24 2017

TNZ002-004-019-021-049-052-054-088>092-242200-
WEST TENNESSEE

CITY           SKY/WX    TMP DP  RH WIND       PRES   REMARKS
MEMPHIS INTL   PTSUNNY   82  62  50 N14       30.09F
NWS MEMPHIS      N/A     80 N/A N/A MISG        N/A
JACKSON        MOSUNNY   81  62  52 N12       30.09F
SOMERVILLE     SUNNY     79  61  53 N9        30.08F
COVINGTON      SUNNY     81  59  47 N14       30.09F
UNION CITY     MOSUNNY   81  61  50 NW12      30.08F
BOLIVAR        SUNNY     79  63  57 VRB7      30.08F
PARIS          MOSUNNY   79  61  53 NW8G14    30.08F
HUNTINGDON     PTSUNNY   79  61  53 VRB7      30.08S
LEXINGTON      SUNNY     81  61  50 NW9G16    30.07F
SELMER         SUNNY     79  63  57 VRB5G14   30.08S
SAVANNAH       MOSUNNY   82  63  51 N9G15     30.06S
$$

TNZ008-025-027-028-033-062-065-066-242200-
NORTH MIDDLE TENNESSEE

CITY           SKY/WX    TMP DP  RH WIND       PRES   REMARKS
NASHVILLE      PTSUNNY   83  57  41 NW10      30.06S
PORTLAND       MOSUNNY   79  61  53 NW6G14    30.06F
CLARKSVILLE    PTSUNNY   80  60  50 W10       30.07F
SMYRNA         MOSUNNY   82  61  48 N12       30.05F
COOKEVILLE     SUNNY     81  63  54 VRB5G15   30.04S
GALLATIN       SUNNY     81  59  47 NW8       30.08R
CROSSVILLE     MOSUNNY   78  61  55 N9        30.07F
$$

TNZ061-075-076-078-094-096-097-242200-
SOUTH MIDDLE TENNESSEE

CITY           SKY/WX    TMP DP  RH WIND       PRES   REMARKS
FAYETTEVILLE   MOSUNNY   82  64  54 N9G15     30.04S
TULLAHOMA      MOSUNNY   81  63  54 N9        30.06S
WINCHESTER     MOSUNNY   82  64  54 N12         N/A
MCMINNVILLE    SUNNY     81  64  57 N13       30.05S
COLUMBIA       SUNNY     82  61  47 NW8       30.04F
SHELBYVILLE    MOSUNNY   81  63  54 NW12      30.04F
$$

TNZ017-018-042-046-047-242200-
NORTHEAST TENNESSEE

CITY           SKY/WX    TMP DP  RH WIND       PRES   REMARKS
TRI CITIES     MOSUNNY   84  65  52 W8        29.99F
ELIZABETHTON   PTSUNNY   82  66  57 VRB7G14   30.00S
$$

TNZ012-013-036-069-073-074-242200-
CENTRAL EAST TENNESSEE

CITY           SKY/WX    TMP DP  RH WIND       PRES   REMARKS
KNOXVILLE      PTSUNNY   85  63  47 W12       29.98S
OAK RIDGE      SUNNY     88  59  37 MISG      30.00S
DOWNTOWN KNOXV MOSUNNY   86  64  48 CALM      29.98R
GATLINBURG     PTSUNNY   81  72  74 CALM      29.98R
MORRISTOWN     SUNNY     82  61  47 NW12      29.99S
JACKSBORO      MOSUNNY   82  61  47 NE9G16    30.04F
$$

TNZ083-085-099-242200-
SOUTHEAST TENNESSEE

CITY           SKY/WX    TMP DP  RH WIND       PRES   REMARKS
CHATTANOOGA    PTSUNNY   88  63  43 NW10      29.99S
$$

SKY/WX REPORTED AS FAIR MEANS FEW OR NO CLOUDS BELOW
12 THOUSAND FEET.





USA.gov is the U.S. government's official web portal to all federal, state and local government web resources and services.